Location: Melque
(41.0517°N, 4.4694°W)
Time: 17:18:17
(UTC+00:00)

Meteor 2-20 - Visible Passes

Search period start: 14 March 2026 00:00
Search period end: 24 March 2026 00:00
Orbit: 939 x 957 km, 82.5° (Epoch: 13 March)

Date Brightness Start Highest point End Pass type
(mag) Time Alt. Az. Time Alt. Az. Time Alt. Az.
14 Mar 5.6 19:00:49 10° NNW 19:06:43 49° W 19:12:34 10° SSW visible
15 Mar 6.5 19:18:23 10° NNW 19:23:41 31° W 19:28:58 10° SSW visible
16 Mar 7.3 19:36:19 10° NW 19:40:34 20° W 19:44:49 10° SW visible
17 Mar 7.7 05:33:22 10° ESE 05:36:56 16° E 05:40:30 10° NE visible
17 Mar 7.8 19:55:13 10° WNW 19:57:21 12° W 19:59:28 10° W visible
18 Mar 7.1 05:48:52 10° SE 05:53:46 26° E 05:58:42 10° NNE visible
20 Mar 7.3 18:59:52 10° NW 19:04:30 23° W 19:09:08 10° SW visible
21 Mar 7.7 04:58:00 10° ESE 05:00:54 14° E 05:03:48 10° NE visible
21 Mar 7.8 19:18:17 10° NW 19:21:19 14° W 19:24:20 10° WSW visible
22 Mar 7.2 05:13:08 10° SE 05:17:42 22° E 05:22:17 10° NE visible
23 Mar 6.3 05:29:08 10° SSE 05:34:36 35° E 05:40:06 10° NNE visible
